Location: Friaudour
(46.0460°N, 1.2873°E)
Time: 04:39:25
(UTC+00:00)

ATLAS 5 CENTAUR R/B - Pass Details

Date: 14 July 2020
Orbit: 534 x 1124 km, 63.4° (Epoch: 03 August)

Event Time Altitude Azimuth Distance (km) Brightness Sun altitude
Rises 03:18:18 0° 317° (NW) 3,322 5.3 -8.9°
Reaches altitude 10° 03:20:38 10° 313° (NW) 2,474 4.6 -8.6°
Maximum altitude 03:26:15 53° 238° (WSW) 1,154 2.6 -7.9°
Drops below altitude 10° 03:32:44 10° 164° (SSE) 2,836 4.7 -7.1°
Sets 03:35:34 0° 160° (SSE) 3,847 5.4 -6.7°
